Epoch = 2014 Jan. 23.0 TT T = 2014 Jan. 14.57774 TT Peri. = 176.46445 e = 0.4736222 Node = 242.73597 2000.0 q = 1.9061258 AU Incl. = 15.40716 a = 3.6212125 AU n = 0.14302865 P = 6.89 years
m1 = 18.0 + 5 logΔ + 10.0 log r